Seattle Boeing, WA
on Monday, January 14, 2013

Monday
Previous Day Next Day
Daily Summary
 ActualAverage (KSEA)Record (KSEA)
Temperature
Mean Temperature °F 42°F  
Max Temperature 39°F 47°F 59°F (1968)
Min Temperature 30°F 37°F 8°F (1950)
Degree Days
Heating Degree Days 30 23  
Month to date heating degree days 330  
Since 1 July heating degree days 2268  
Cooling Degree Days 0 0  
Month to date cooling degree days 0  
Year to date cooling degree days 0  
Moisture
Dew Point 27°F   
Average Humidity 73    
Maximum Humidity 79    
Minimum Humidity 60    
Precipitation
Precipitation 0.00 in 0.19 in 1.61 in (1988)
Month to date precipitation 2.64  
Year to date precipitation 2.64  
Snow
Snow 0.00 in in 4.00 in (1950)
Month to date snowfall  
Since 1 July snowfall  
Snow Depth in   
Wind
Wind Speed 4 mph   
Max Wind Speed 9 mph   
Max Gust Speed mph   
Visibility 10 miles   
Events     

Key: T is trace of precipitation, MM is missing value
Source: NWS Daily Summary
Time(PST)TemperatureDew PointHumidity Pressure Visibility Wind DirectionWind SpeedGust SpeedPrecipitationEvents Conditions
12:53 AM 30.0°F 24.1°F 79% 30.48 in 10.0 miles SSE 4.6 mph - N/A   Overcast
1:53 AM 30.9°F 25.0°F 79% 30.49 in 10.0 miles SSE 3.5 mph - N/A   Overcast
2:53 AM 30.9°F 25.0°F 79% 30.49 in 10.0 miles SE 4.6 mph - N/A   Overcast
3:53 AM 30.9°F 25.0°F 79% 30.50 in 10.0 miles SE 5.8 mph - N/A   Overcast
4:53 AM 30.9°F 25.0°F 79% 30.49 in 10.0 miles SE 5.8 mph - N/A   Overcast
5:53 AM 30.9°F 25.0°F 79% 30.50 in 10.0 miles SSE 6.9 mph - N/A   Overcast
6:53 AM 30.9°F 25.0°F 79% 30.49 in 10.0 miles SSE 8.1 mph - N/A   Overcast
7:53 AM 30.9°F 24.1°F 76% 30.52 in 10.0 miles SSE 9.2 mph - N/A   Overcast
8:53 AM 32.0°F 24.1°F 73% 30.51 in 10.0 miles SE 9.2 mph - N/A   Overcast
9:53 AM 33.1°F 25.0°F 72% 30.53 in 10.0 miles SE 9.2 mph - N/A   Overcast
10:53 AM 34.0°F 26.1°F 73% 30.53 in 10.0 miles SE 6.9 mph - N/A   Overcast
11:53 AM 35.1°F 28.0°F 76% 30.52 in 10.0 miles SE 5.8 mph - N/A   Overcast
12:53 PM 36.0°F 28.0°F 73% 30.52 in 10.0 miles SE 3.5 mph - N/A   Overcast
1:53 PM 37.4°F 26.6°F 65% 30.51 in 10.0 miles ESE 3.5 mph - N/A   Overcast
2:53 PM 39.0°F 27.0°F 62% 30.52 in 10.0 miles SE 3.5 mph - N/A   Overcast
3:53 PM 39.0°F 26.1°F 60% 30.52 in 10.0 miles Calm Calm - N/A   Overcast
4:53 PM 39.0°F 26.1°F 60% 30.53 in 10.0 miles Calm Calm - N/A   Overcast
5:53 PM 37.9°F 26.1°F 62% 30.53 in 10.0 miles Calm Calm - N/A   Mostly Cloudy
6:53 PM 37.9°F 28.0°F 68% 30.54 in 10.0 miles Calm Calm - N/A   Scattered Clouds
7:53 PM 37.0°F 28.9°F 73% 30.55 in 10.0 miles Calm Calm - N/A   Mostly Cloudy
8:53 PM 37.0°F 28.9°F 73% 30.56 in 10.0 miles Calm Calm - N/A   Mostly Cloudy
9:53 PM 37.0°F 30.0°F 76% 30.56 in 10.0 miles Calm Calm - N/A   Overcast
10:53 PM 37.9°F 30.0°F 73% 30.57 in 10.0 miles Calm Calm - N/A   Overcast
11:53 PM 37.9°F 30.0°F 73% 30.57 in 10.0 miles Calm Calm - N/A   Overcast
Moon Phase
Jan. 14 Jan. 18 Jan. 26 Feb. 03 Feb. 10
Sunrise:07:52 AM (PST) Moon Rise:09:11 AM (PST)1/14
Sunset:04:44 PM (PST) Moon Set:08:55 PM (PST)1/14

Copyright © 2014 The Weather Underground, Inc.